Location: Strada George Coșbuc
(47.6577°N, 23.5639°E)
Time: 01:26:34
(UTC+03:00)

ISS - Pass Details

Date: 03 September 2017
Orbit: 401 x 407 km, 51.6° (Epoch: 23 September)

Event Time Altitude Azimuth Distance (km) Brightness Sun altitude
Exits shadow 05:30:47 - 185° (S) 1,609 -1.1 -12.9°
Reaches altitude 10° 05:31:17 10° 180° (S) 1,465 -1.3 -12.8°
Maximum altitude 05:33:29 17° 137° (SE) 1,121 -1.4 -12.5°
Drops below altitude 10° 05:35:43 10° 95° (E) 1,472 0.0 -12.1°
Sets 05:38:17 0° 74° (ENE) 2,337 2.0 -11.8°
